Location: Capvern
(43.1036°N, 0.3160°E)
Time: 23:35:29
(UTC+00:00)

GPS 2-04 Rocket1 - Pass Details

Date: 16 October 2021
Orbit: 412 x 536 km, 35.6° (Epoch: 04 December)

Event Time Altitude Azimuth Distance (km) Brightness Sun altitude
Rises 18:01:03 0° 258° (WSW) 2,560 8.4 -9.3°
Reaches altitude 10° 18:03:38 10° 243° (WSW) 1,652 6.5 -9.8°
Maximum altitude 18:06:34 22° 192° (SSW) 1,079 4.5 -10.3°
Drops below altitude 10° 18:09:25 10° 140° (SE) 1,589 4.8 -10.8°
Enters shadow 18:10:02 - 135° (SE) 1,787 5.0 -10.9°
